Simultaneous Nadir Overpasses (SNOs) Predictions

Prediction of SNOs between METOP-A and NPP Satellite Orbit:

Table of predicted SNOs for the next 14.0 days since TLE Epoch: 11/27/2021
Index Date (METOP-A) Time (METOP-A) Lat,Lon (METOP-A) SZA (METOP-A ) Date (NPP) Time (NPP) Lat,Lon (NPP) SZA (NPP ) Distance(km) Time Diff (sec)
1 11/29/2021 09:09:13 77.28, 21.71 99.34 11/29/2021 09:08:39 77.29, 21.73 99.36 1.76 34
2 11/29/2021 09:58:29 -77.24,-170.78 80.69 11/29/2021 09:59:22 -77.25,-170.74 80.70 1.47 53
3 12/01/2021 17:49:28 -77.26, 71.66 80.30 12/01/2021 17:48:46 -77.28, 71.77 80.28 3.45 42
4 12/01/2021 18:38:55 77.26,-120.68 99.71 12/01/2021 18:39:31 77.25,-120.80 99.70 3.35 36
5 12/04/2021 02:30:02 77.29, 121.76 100.07 12/04/2021 02:28:55 77.28, 121.70 100.08 1.70 67
6 12/04/2021 03:19:02 -77.21, -70.82 79.99 12/04/2021 03:19:38 -77.23, -70.75 79.98 2.48 36
7 12/06/2021 11:10:00 -77.29, 171.83 79.64 12/06/2021 11:09:02 -77.27, 171.75 79.63 3.01 58
8 12/06/2021 11:59:45 77.21, -20.89 100.32 12/06/2021 11:59:47 77.24, -20.84 100.35 3.35 2
9 12/08/2021 20:39:35 -77.20, 29.19 79.43 12/08/2021 20:39:54 -77.22, 29.20 79.41 2.27 19



Historial Predications of SNOs between METOP-A and NPP
